This demonstration page uses our WeatherBlox Daily Observations layout. Learn more.

Left ArrowRight Arrow

40.92945, -100.16068

Hourly Observations for April 14, 2021

Temp ( °F °C ) Dew Point ( °F °C ) Humidity (%) Winds ( mph kmh ) Pressure ( in mb ) Visibility ( mi km ) Precip ( " mm )
12:15 am 00:15 Clear 35 1.6 22 -5.3 61 61 NNE 8 13 30.34 1027 10 16.0934 0 0
12:35 am 00:35 Clear 32 0.2 22 -5.6 65 65 NNE 6 9 30.37 1028 10 16.0934 0 0
12:55 am 00:55 Clear 34 1.1 22 -5.7 61 61 NNE 9 15 30.36 1028 10 16.0934 0 0
1:15 am 01:15 Clear 34 1 22 -5.7 61 61 NNE 9 15 30.37 1028 10 16.0934 0 0
1:35 am 01:35 Clear 33 0.5 22 -5.8 63 63 NNE 7 11 30.38 1029 10 16.0934 0 0
1:55 am 01:55 Clear 32 -0.1 21 -6 65 65 Calm 30.4 1029 10 16.0934 0 0
2:15 am 02:15 Clear 31 -0.8 21 -6.1 68 68 N 6 9 30.41 1030 10 16.0934 0 0
2:35 am 02:35 Clear 30 -1 21 -6.1 69 69 N 6 9 30.41 1030 10 16.0934 0 0
2:55 am 02:55 Clear 30 -1.1 21 -6.3 68 68 N 5 7 30.41 1030 10 16.0934 0 0
3:15 am 03:15 Clear 29 -1.5 21 -6.3 70 70 N 8 13 30.41 1030 10 16.0934 0 0
3:35 am 03:35 Clear 29 -1.8 20 -6.4 71 71 NNW 6 9 30.42 1030 10 16.0934 0 0
3:55 am 03:55 Clear 28 -2.3 20 -6.6 73 73 NNW 6 9 30.42 1030 10 16.0934 0 0
4:15 am 04:15 Clear 27 -2.7 20 -6.5 75 75 NNW 6 9 30.43 1030 10 16.0934 0 0
4:35 am 04:35 Clear 27 -3 20 -6.9 75 75 NW 6 9 30.44 1031 10 16.0934 0 0
4:55 am 04:55 Clear 26 -3.1 19 -7 75 75 NW 6 9 30.43 1030 10 16.0934 0 0
5:15 am 05:15 Clear 26 -3.5 19 -7 77 77 NNW 8 13 30.42 1030 10 16.0934 0 0
5:35 am 05:35 Clear 26 -3.6 19 -7 78 78 NW 5 7 30.43 1031 10 16.0934 0 0
5:55 am 05:55 Clear 24 -4.2 19 -7.2 80 80 WNW 6 9 30.45 1031 10 16.0934 0 0
6:15 am 06:15 Clear 25 -3.7 19 -7 78 78 WNW 7 11 30.45 1031 10 16.0934 0 0
6:35 am 06:35 Clear 24 -4.5 19 -7.4 80 80 WNW 8 13 30.44 1031 10 16.0934 0 0
6:55 am 06:55 Partly Cloudy 24 -4.6 19 -7.4 81 81 WNW 7 11 30.46 1031 10 16.0934 0 0
7:15 am 07:15 Mostly Cloudy 26 -3.3 20 -6.6 78 78 NW 7 11 30.44 1031 10 16.0934 0 0
7:35 am 07:35 Cloudy 28 -2.1 21 -6.2 74 74 NW 7 11 30.44 1031 10 16.0934 0 0
7:55 am 07:55 Cloudy 29 -1.8 21 -6.3 72 72 NW 10 17 30.45 1031 10 16.0934 0 0
8:15 am 08:15 Cloudy 29 -1.6 20 -6.5 70 70 NW 8 13 30.44 1031 10 16.0934 0 0
8:35 am 08:35 Cloudy 30 -1.2 21 -6.1 70 70 NW 8 13 30.45 1031 10 16.0934 0 0
8:55 am 08:55 Cloudy 30 -0.9 20 -6.4 67 67 NNW 8 13 30.44 1031 10 16.0934 0 0
9:15 am 09:15 Cloudy 32 -0.1 21 -5.9 65 65 NNW 8 13 30.44 1031 10 16.0934 0 0
9:35 am 09:35 Cloudy 33 0.6 21 -6.1 61 61 N 12 19 30.43 1031 10 16.0934 0 0
9:55 am 09:55 Cloudy 35 1.4 21 -6.3 57 57 N 14 22 30.42 1030 10 16.0934 0 0
10:15 am 10:15 Mostly Cloudy 35 1.9 21 -6.1 56 56 N 15 24 30.42 1030 10 16.0934 0 0
10:35 am 10:35 Partly Cloudy 36 2.1 21 -6.3 54 54 N 15 24 30.42 1030 10 16.0934 0 0
10:55 am 10:55 Mostly Cloudy 36 2 21 -6.3 55 55 NNW 13 20 30.42 1030 10 16.0934 0 0
11:15 am 11:15 Cloudy with Light Snow 35 1.4 24 -4.4 66 66 N 14 22 30.42 1030 10 16.0934 0 0
11:35 am 11:35 Mostly Cloudy with Light Snow 33 0.7 27 -2.6 79 79 N 10 17 30.43 1031 5 8.0467 0 0
11:55 am 11:55 Mostly Cloudy with Light Snow 33 0.7 29 -1.6 85 85 N 12 19 30.43 1031 5 8.0467 0 0
12:15 pm 12:15 Cloudy with Light Snow 33 0.7 30 -1.1 88 88 NNW 10 17 30.42 1030 7 11.26538 0 0
12:35 pm 12:35 Cloudy with Light Snow 34 0.9 30 -0.9 88 88 N 8 13 30.42 1030 4 6.43736 0 0
12:55 pm 12:55 Cloudy 35 1.4 30 -1 84 84 NNW 9 15 30.4 1030 10 16.0934 0 0
1:15 pm 13:15 Mostly Cloudy 37 2.9 30 -0.9 76 76 NNW 8 13 30.38 1029 10 16.0934 0 0
1:35 pm 13:35 Mostly Cloudy 38 3.2 30 -1.1 74 74 NNW 8 13 30.38 1029 10 16.0934 0 0
1:55 pm 13:55 Cloudy 40 4.5 29 -1.4 66 66 N 8 13 30.34 1028 10 16.0934 0 0
2:15 pm 14:15 Mostly Cloudy 41 5.2 26 -3.5 54 54 N 9 15 30.34 1027 10 16.0934 0 0
2:35 pm 14:35 Mostly Cloudy 42 5.8 25 -3.7 51 51 N 9 15 30.31 1026 10 16.0934 0 0
2:55 pm 14:55 Partly Cloudy 43 6 25 -4.1 49 49 N 9 15 30.31 1026 10 16.0934 0 0
3:15 pm 15:15 Mostly Cloudy 43 6.2 25 -4.1 48 48 N 10 17 30.3 1026 10 16.0934 0 0
3:35 pm 15:35 Partly Cloudy 44 6.7 25 -3.9 47 47 N 10 17 30.28 1025 10 16.0934 0 0
3:55 pm 15:55 Sunny 44 6.9 24 -4.2 45 45 NNE 9 15 30.27 1025 10 16.0934 0 0
4:15 pm 16:15 Sunny 44 6.9 24 -4.4 45 45 N 10 17 30.27 1025 10 16.0934 0 0
4:35 pm 16:35 Mostly Cloudy 45 7 24 -4.2 45 45 N 14 22 30.26 1025 10 16.0934 0 0
4:55 pm 16:55 Cloudy 44 6.9 24 -4.4 45 45 N 9 15 30.25 1024 10 16.0934 0 0
5:15 pm 17:15 Mostly Cloudy 45 7.2 24 -4.2 45 45 N 12 19 30.25 1024 10 16.0934 0 0
5:35 pm 17:35 Cloudy 45 7.1 24 -4.4 44 44 N 10 17 30.25 1024 10 16.0934 0 0
5:55 pm 17:55 Cloudy 45 7 24 -4.5 44 44 N 12 19 30.24 1024 10 16.0934 0 0
6:15 pm 18:15 Cloudy 45 7 24 -4.6 44 44 NNE 8 13 30.25 1024 10 16.0934 0 0
6:35 pm 18:35 Cloudy 45 7.1 24 -4.5 44 44 NNE 9 15 30.25 1024 10 16.0934 0 0
6:55 pm 18:55 Cloudy 45 7.3 24 -4.3 44 44 N 6 9 30.24 1024 10 16.0934 0 0
7:15 pm 19:15 Cloudy 46 7.5 25 -4.1 44 44 N 7 11 30.23 1024 10 16.0934 0 0
7:35 pm 19:35 Cloudy 46 7.6 25 -4 44 44 N 6 9 30.23 1024 10 16.0934 0 0
7:55 pm 19:55 Mostly Cloudy 44 6.8 26 -3.6 48 48 N 7 11 30.24 1024 10 16.0934 0 0
8:15 pm 20:15 Partly Cloudy 42 5.5 25 -3.7 52 52 N 7 11 30.26 1025 10 16.0934 0 0
8:35 pm 20:35 Partly Cloudy 40 4.2 25 -3.9 56 56 N 6 9 30.29 1026 10 16.0934 0 0
8:55 pm 20:55 Mostly Cloudy 39 3.7 26 -3.4 60 60 N 6 9 30.3 1026 10 16.0934 0 0
9:15 pm 21:15 Cloudy 39 4 26 -3.1 60 60 N 6 9 30.3 1026 10 16.0934 0 0
9:35 pm 21:35 Cloudy 40 4.7 26 -3.5 56 56 N 6 9 30.3 1026 10 16.0934 0 0
9:55 pm 21:55 Mostly Cloudy 38 3.1 26 -3.5 62 62 N 6 9 30.33 1027 10 16.0934 0 0
10:15 pm 22:15 Mostly Cloudy 36 2.2 26 -3.5 66 66 N 6 9 30.35 1028 10 16.0934 0 0
10:35 pm 22:35 Mostly Cloudy 35 1.9 26 -3.5 68 68 N 7 11 30.35 1028 10 16.0934 0 0
10:55 pm 22:55 Cloudy 37 2.5 26 -3.5 65 65 NE 6 9 30.34 1028 10 16.0934 0 0
11:15 pm 23:15 Cloudy 37 2.7 27 -3 66 66 NE 6 9 30.34 1027 10 16.0934 0 0
11:35 pm 23:35 Cloudy 37 2.6 27 -3 67 67 NE 8 13 30.34 1027 10 16.0934 0 0
11:55 pm 23:55 Cloudy 36 2.3 27 -3 68 68 NE 7 11 30.34 1028 10 16.0934 0 0

Powered by AerisWeather